McCook, NE

6:44 PM CDT on March 25, 2017 (GMT -0500)
McCook Municipal

Weather History for KMCK - June, 2012

Change the Weather History Date:

Saturday, June 30, 2012

  Actual Average Record
Temperature  
Mean Temperature 86 °F 75 °F  
Max Temperature 104 °F 89 °F 107 °F (1968)
Min Temperature 68 °F 60 °F 44 °F (1918)
Cooling Degree Days 22    
Growing Degree Days 37 (Base 50)    
Moisture  
Dew Point 58 °F    
Average Humidity 45    
Maximum Humidity 81    
Minimum Humidity 15    
Precipitation  
Precipitation T in 0.10 in 1.40 in (1988)
Month to date precipitation 0.53 3.38  
Year to date precipitation 4.55 11.32  
Sea Level Pressure  
Sea Level Pressure 29.77 in    
Wind  
Wind Speed 6 mph (ESE)    
Max Wind Speed 20 mph    
Max Gust Speed 25 mph    
Visibility 10 miles    
Events Thunderstorm    
T = Trace of Precipitation, MM = Missing Value Source: NWS Daily Summary

Daily Weather History Graph

Daily Weather History Graph

Search for Another Location

Airport or City:

Trip Planner

Search our weather history database for the weather conditions in past years. The results will help you decide how hot, cold, wet, or windy it might be!

Date:

Astronomy

Jun. 30, 2012 Rise Set
Actual Time 6:16 AM CDT 9:15 PM CDT
Civil Twilight 5:43 AM CDT 9:48 PM CDT
Nautical Twilight 5:01 AM CDT 10:30 PM CDT
Astronomical Twilight 4:13 AM CDT 11:18 PM CDT
Moon 6:14 PM CDT (6/30) 3:13 AM CDT (6/30)
Length of Visible Light 16h 05m
Length of Day
14h 59m
Waxing Gibbous, 87% of the Moon is Illuminated
Jun 30
Waxing Gibbous
Jul 3
Full
Jul 10
Last Quarter
Jul 18
New
Jul 26
First Quarter

Hourly Weather History & Observations

Time (CDT) Temp. Heat Index Dew Point Humidity Pressure Visibility Wind Dir Wind Speed Gust Speed Precip Events Conditions
12:53 AM 75.0 °F - 64.9 °F 71% 29.75 in 9.0 mi NNE 3.5 mph - N/A   Clear
1:53 AM 75.0 °F - 64.9 °F 71% 29.75 in 9.0 mi Calm Calm - N/A   Clear
2:53 AM 73.0 °F - 66.0 °F 79% 29.73 in 8.0 mi North 3.5 mph - N/A   Clear
3:53 AM 72.0 °F - 66.0 °F 81% 29.73 in 8.0 mi West 3.5 mph - N/A   Clear
4:53 AM 73.0 °F - 66.0 °F 79% 29.73 in 7.0 mi NW 4.6 mph - N/A   Clear
6:53 AM 73.0 °F - 64.9 °F 76% 29.77 in 7.0 mi SSW 3.5 mph - N/A   Clear
7:53 AM 75.9 °F - 64.0 °F 67% 29.78 in 9.0 mi WSW 4.6 mph - N/A   Clear
8:53 AM 78.1 °F - 62.1 °F 58% 29.79 in 10.0 mi NNW 4.6 mph - N/A   Clear
9:53 AM 86.0 °F 85.0 °F 57.9 °F 38% 29.79 in 10.0 mi WNW 3.5 mph - N/A   Clear
10:53 AM 91.9 °F - 52.0 °F 26% 29.78 in 10.0 mi NNW 8.1 mph - N/A   Clear
11:53 AM 95.0 °F - 48.9 °F 21% 29.78 in 10.0 mi NNE 6.9 mph - N/A   Clear
12:53 PM 98.1 °F - 50.0 °F 20% 29.76 in 10.0 mi Variable 4.6 mph - N/A   Clear
1:53 PM 99.0 °F 98.1 °F 57.9 °F 25% 29.75 in 10.0 mi SE 10.4 mph - N/A   Clear
2:53 PM 100.9 °F - 46.0 °F 15% 29.74 in 10.0 mi SE 5.8 mph - N/A   Clear
3:53 PM 102.0 °F - 48.0 °F 16% 29.73 in 10.0 mi Calm Calm - N/A   Clear
4:53 PM 100.0 °F 97.9 °F 53.1 °F 21% 29.72 in 10.0 mi ESE 15.0 mph 21.9 mph N/A   Clear
5:51 PM 95.0 °F 92.7 °F 53.6 °F 25% 29.82 in 10.0 mi East 11.5 mph - N/A Thunderstorm Clear
5:53 PM 95.0 °F 92.5 °F 53.1 °F 24% 29.73 in 10.0 mi East 10.4 mph - N/A Thunderstorm Clear
6:49 PM 87.8 °F 86.1 °F 55.4 °F 33% 29.80 in 10.0 mi SE 17.3 mph 21.9 mph 0.00 in Thunderstorm Scattered Clouds
6:53 PM 88.0 °F 86.1 °F 55.0 °F 32% 29.71 in 10.0 mi ESE 18.4 mph 25.3 mph 0.00 in Thunderstorm Partly Cloudy
6:58 PM 87.8 °F 86.5 °F 57.2 °F 35% 29.80 in 10.0 mi ESE 19.6 mph - N/A   Partly Cloudy
7:53 PM 84.9 °F 84.2 °F 57.9 °F 40% 29.72 in 10.0 mi East 12.7 mph - N/A   Clear
8:53 PM 82.9 °F 82.4 °F 57.0 °F 41% 29.78 in 10.0 mi SSW 13.8 mph - N/A   Clear
9:00 PM 82.4 °F 82.0 °F 57.2 °F 42% 29.86 in 10.0 mi South 10.4 mph - N/A   Clear
9:53 PM 78.1 °F - 55.9 °F 46% 29.79 in 9.0 mi SE 6.9 mph - N/A   Clear
10:53 PM 77.0 °F - 61.0 °F 58% 29.80 in 10.0 mi SE 9.2 mph - N/A   Clear
11:53 PM 73.0 °F - 62.1 °F 68% 29.77 in 10.0 mi ENE 6.9 mph - N/A   Clear